IRIDIUM 122

Last updated on Fri Sep 11 2026 00:03:06 GMT+0000 (Coordinated Universal Time)

1 42957U 17061C 26253.52970314 .00000167 00000+0 52438-4 0 9990 2 42957 86.4028 349.5225 0002255 93.7623 266.3830 14.34217218467010
UTC large
Height (km)
Speed (km/s)
/
Latitude / Longitude
Inclination (degrees)
Orbital Period (minutes)
Azimuth
Elevation
Range (km)
Doppler Factor

Next 0 passes for location: London (51.5072 / 0.1276)

No passes found over London.
IRIDIUM 122